Miscellaneous Local Product
Issued by NWS Hastings, NE

Home | Current Version | Previous Version | Text Only | Print | Product List | Glossary Off
Versions: 1 2 3 4 5 6 7 8 9 10 11 12 13 14 15 16 17 18 19 20 21 22 23 24 25 26 27 28 29 30 31 32 33 34 35 36 37 38 39 40 41 42 43 44 45 46 47 48 49 50

940
AXUS43 KGID 181002
MISGRI

GID CWA HOURLY WEATHER ROUNDUP
NATIONAL WEATHER SERVICE HASTINGS NE
400 AM CST SUN FEB 18 2018

NOTE: "FAIR" INDICATES FEW OR NO CLOUDS BELOW 12,000 FEET WITH NO
SIGNIFICANT WEATHER AND/OR OBSTRUCTIONS TO VISIBILITY.

...SOUTH CENTRAL NEBRASKA...

CITY           SKY/WX    TMP DP  RH WIND       PRES   REMARKS
GRAND ISLAND   CLEAR     38  18  44 S26G38    29.80F WCI  26
KEARNEY        CLEAR     38  19  46 S23       29.78F WCI  27
HASTINGS       CLEAR     36  16  44 S16G29    29.82F WCI  26
ORD            CLEAR     37  20  50 S20G32    29.74F WCI  27
YORK           CLEAR     34  19  55 S20       29.87F WCI  22
AURORA         CLEAR     33  19  54 S15G23    29.84F WCI  23
LEXINGTON      CLEAR     39  19  46 S28G35    29.72F WCI  27
HOLDREGE       CLOUDY    37  20  50 S20       29.78F WCI  26
HEBRON         CLOUDY    37  17  44 S15G21    29.92F WCI  28

...NEBRASKA PANHANDLE...

CITY           SKY/WX    TMP DP  RH WIND       PRES   REMARKS
CHADRON        MOCLDY    40  25  55 S12       29.45F WCI  33
ALLIANCE       MOCLDY    32  20  61 SE9       29.52F WCI  24
SCOTTSBLUFF    PTCLDY    55  11  17 SW22G33   29.50F
SIDNEY         PTCLDY    26  16  65 SW12      29.61F WCI  16

...WESTERN AND NORTH CENTRAL NEBRASKA...

CITY           SKY/WX    TMP DP  RH WIND       PRES   REMARKS
VALENTINE      MOCLDY    40  19  43 SW26      29.53F WCI  29
AINSWORTH      CLEAR     37  21  52 S28G35    29.56F WCI  25
ONEILL         CLEAR     36  23  61 S21G26    29.67F WCI  24
BROKEN BOW     CLEAR     37  20  50 S16       29.71F WCI  28
IMPERIAL       CLEAR     36  19  50 S9        29.67F WCI  29
NORTH PLATTE   CLEAR     37  19  48 S14G21    29.66F WCI  28
MCCOOK         PTCLDY    39  19  44 S9        29.73F WCI  33

...EASTERN NEBRASKA...

CITY           SKY/WX    TMP DP  RH WIND       PRES   REMARKS
NORFOLK        CLEAR     32  23  69 S21       29.80F WCI  20
SO SIOUX CITY  CLOUDY    24  22  91 SE12      29.89F WCI  13
TEKAMAH        CLEAR     29  25  85 SE15      29.93F WCI  18
COLUMBUS       CLEAR     33  22  63 S14       29.87F WCI  23
ALBION         CLEAR     33  23  66 SE14      29.81F WCI  23
OMAHA EPPLEY   CLEAR     31  24  75 S15       29.97F WCI  20
OFFUTT AFB     CLEAR     28  22  80 S6        29.97F WCI  21
MILLARD        CLEAR     32  25  76 SE12      29.96F WCI  23
LINCOLN        CLEAR     34  22  61 S15       29.94F WCI  24
NEBRASKA CITY  CLEAR     32  24  73 S15       30.00F WCI  22
BEATRICE       CLOUDY    37  21  52 S14G21    29.95F WCI  28
FALLS CITY     CLOUDY    33  20  58 S12       30.04F WCI  24

...NORTHERN KANSAS...

CITY           SKY/WX    TMP DP  RH WIND       PRES   REMARKS
GOODLAND       MOCLDY    37  18  46 S18       29.70F WCI  27
HILL CITY      CLOUDY    42  17  36 S9G18     29.84F
NORTON         SUNNY     39  10  30 S20G26    29.77F WCI  30
PHILLIPSBURG   CLEAR     43  18  36 S12G18    29.84F
SMITH CENTER   CLEAR     36  18  48 SE15      29.88F WCI  26
BELOIT         CLEAR     36  14  41 CALM      29.94F
HAYS           CLOUDY    43  22  43 S25G36    29.88F
RUSSELL        CLOUDY    43  23  45 S22G30    29.90F
CONCORDIA      CLOUDY    41  16  36 S21G29    29.94F
SALINA         CLOUDY    41  22  46 S12       29.99F
TOPEKA         CLOUDY    41  26  55 S9        30.07F



USA.gov is the U.S. government's official web portal to all federal, state and local government web resources and services.